Regional Weather Roundup
Issued by NWS Grand Forks, ND

Home | Current Version | Previous Version | Text Only | Print | Product List | Glossary On
Versions: 1 2 3 4 5 6 7 8 9 10 11 12 13 14 15 16 17 18 19 20 21 22 23 24 25 26 27 28 29 30 31 32 33 34 35 36 37 38 39 40 41 42 43 44 45 46 47 48 49 50
000
ASUS43 KFGF 231331
RWRFGF
PRAIRIE TO PINES  WEATHER ROUNDUP
NATIONAL WEATHER SERVICE EASTERN NORTH DAKOTA/GRAND FORKS ND
800 AM CDT TUE MAY 23 2017

 **SATELLITE DATA USED TO AUGMENT SKY COVER AT AUTOMATED STATIONS**
 *****  WEATHER ACROSS EASTERN NORTH DAKOTA  *****

CITY           SKY/WX    TMP DP  RH WIND       PRES   REMARKS
GRAND FORKS    CLOUDY    50  45  83 N17       29.99R
GRAND FRKS AFB CLOUDY    48  45  87 N17       30.00R
DEVILS LAKE    PTSUNNY   48  39  71 N18G25    30.07R
FARGO          CLOUDY    48  46  93 N18G24    29.93R
WAHPETON ARPT  CLOUDY    46  43  87 N14       29.91S
$$

 ***** WEATHER ACROSS CENTRAL AND WESTERN NORTH DAKOTA  *****

CITY           SKY/WX    TMP DP  RH WIND       PRES   REMARKS
BISMARCK       FAIR      53  37  54 N13G23    30.08R
MINOT          FAIR      50  38  63 NW12      30.14S
JAMESTOWN      LGT RAIN  46  44  93 N17       30.00R FOG
MINOT AFB      FAIR      48  38  68 N8        30.14R
GARRISON         N/A     47  38  71 N15       30.13R
WILLISTON      FAIR      46  36  68 NE3       30.18R
DICKINSON      FAIR      43  36  76 W6        30.14R
HETTINGER      FAIR      46  37  71 NW9       30.14S
$$

 *****  OTHER AIRPORT OBSERVATIONS IN OUR AREA  *****

CITY           SKY/WX    TMP DP  RH WIND       PRES   REMARKS
WALHALLA       NOT AVBL
GRAFTON AIRPOR FAIR      48  46  93 N16G25    30.04S
VALLEY CITY AR NOT AVBL
CANDO          NOT AVBL
CAVALIER APRT  PTSUNNY   48  43  81 N13G22    30.06R
GWINNER        CLOUDY    46  46 100 MISG      29.95R
SHEYENNE NWR     N/A     46  46  99 N9        29.95S
ROLLA          FAIR      50  39  66 N20       30.12S
 ***** THE ABOVE OBSERVATIONS ARE NON NWS ARE NOT QUALITY
       CONTROLLED AND MAY MIS-REPORT RAIN FOR SNOW...
$$

  *****  WEATHER ACROSS NORTHERN MINNESOTA  *****

CITY           SKY/WX    TMP DP  RH WIND       PRES   REMARKS
FLAG ISLAND    FAIR      48  41  76 N17G23    29.99R
WARROAD        CLOUDY    48  43  81 NE15G23   29.99S
ROSEAU         FAIR      52  45  76 NE18      29.99R
HALLOCK        FAIR      52  45  76 N15G21    30.02S
THF RVR FALLS  CLOUDY    47  43  86 N13       29.97R
BAUDETTE       CLOUDY    47  43  86 NE14      29.96R
WASKISH        CLOUDY    45  45 100 NE13      29.93R
CROOKSTON      CLOUDY    46  45  93 NE15      29.98R
STEPHEN NDAWN    N/A     50  45  81 N18         N/A
GREENBUSH NDAW   N/A     48  45  87 N16         N/A
$$
  *****  WEATHER ACROSS CENTRAL AND WEST MINNESOTA  *****

CITY           SKY/WX    TMP DP  RH WIND       PRES   REMARKS
FOSSTON        CLOUDY    45  45 100 N12G17    29.93R
BEMIDJI        CLOUDY    46  45  97 N9G18     29.89S
PARK RAPIDS    LGT RAIN  49  43  80 NE9       29.87R
ELBOW LAKE     CLOUDY    47  46  96 NW12      29.89R
WADENA         LGT RAIN  45  45 100 N3        29.87R
DETROIT LAKES  CLOUDY    46  45  93 N6        29.90R
MOORHEAD       CLOUDY    46  45  93 N16       29.93R
FERGUS FALLS   CLOUDY    46  46 100 N10G17    29.89R
MORRIS MN      PTSUNNY   48  46  93 N14       29.87S
STAPLES        CLOUDY    46  45  93 N5        29.86S
$$
  *****  WEATHER ELSEWHERE ACROSS MINNESOTA  *****

CITY           SKY/WX    TMP DP  RH WIND       PRES   REMARKS
DULUTH         CLOUDY    47  44  90 N6        29.85R
INTRNTL FALLS  LGT RAIN  46  42  86 NE8G21    29.93R FOG
ELY            DRZL/FOG  43  43 100 CALM      29.88R VSB 1
CLOQUET        CLOUDY    48  43  81 CALM      29.85S
WHEATON        CLOUDY    46  45  93 N14G20    29.92S
BRAINERD       CLOUDY    47  45  93 NE7       29.86R
HIBBING        CLOUDY    43  43 100 NE5       29.87R
ALEXANDRIA     CLOUDY    47  45  93 N10       29.87R
SAINT CLOUD    CLOUDY    47  46  97 N7        29.84S
MINNEAPOLIS    CLOUDY    52  44  74 N6        29.82R
$$

  *****  WEATHER ACROSS SOUTH DAKOTA  *****

CITY           SKY/WX    TMP DP  RH WIND       PRES   REMARKS
SIOUX FALLS    LGT RAIN  49  45  86 N10       29.89S
BROOKINGS      LGT RAIN  46  44  93 N9        29.89R
WATERTOWN      CLOUDY    46  43  89 N14       29.90R
HURON          CLOUDY    47  45  93 N14       29.95R
SISSETON         N/A     48  46  93 N14       29.91R
ABERDEEN       LGT RAIN  47  43  86 N17       29.97R
MITCHELL       CLOUDY    49  45  86 NW14      29.95R
PIERRE         LGT RAIN  49  40  71 N15       30.02R
MOBRIDGE       CLOUDY    53  37  54 N22G32    30.00S
RAPID CITY     CLOUDY    48  39  71 N12       30.14S
$$

  *****  SOME WEATHER IN NEARBY STATES *****

CITY           SKY/WX    TMP DP  RH WIND       PRES   REMARKS
GLASGOW MT     FAIR      42  35  76 SE3       30.17S
GREAT FALLS MT FAIR      51  44  77 CALM      30.13S
CHEYENNE WY    CLOUDY    41  34  76 NW16G23   30.22R
SCOTTSBLUFF NE CLOUDY    42  38  85 W8        30.17R
OMAHA NE       PTSUNNY   53  43  68 NW12      29.92R
DES MOINES IA  FAIR      54  49  83 NW10      29.84F
DAVENPORT IA   CLOUDY    57  53  86 SW10      29.81R
CHICAGO IL     CLOUDY    60  53  77 SW7G17    29.81S
EAU CLAIRE WI  CLOUDY    50  48  93 NE5       29.80S
LA CROSSE WI   CLOUDY    55  53  93 N5        29.77S
$$

  *****  SOME NATIONAL WEATHER *****

CITY           SKY/WX    TMP DP  RH WIND       PRES   REMARKS
LA GUARDIA NY  PTSUNNY   61  50  67 NE8       29.95S
RALEIGH NC     CLOUDY    69  67  93 E6        29.87F FOG
ATLANTA GA     LGT RAIN  67  66  97 SW9       29.85F FOG
NEW ORLEANS LA PTSUNNY   75  72  90 W12       29.78R
OKLAHOMA CITY  PTSUNNY   56  53  90 NW21G28   29.92R
ALBUQUERQUE NM FAIR      56  42  59 E10       30.14R
SALT LAKE CITY FAIR      59  43  55 S12       30.18R
LOS ANGELES CA FAIR      59  57  93 SW6       29.95R FOG
BOISE ID       FAIR      56  41  57 SE8       30.11S
SEATTLE WA     FAIR      54  49  83 NW3       30.03R
$$

*** WEATHER ACROSS MANITOBA...SASKATCHEWAN AND ONTARIO ***
                ***ONTARIO***

CITY           SKY/WX    TMP DP  RH WIND       PRES   REMARKS
GERALDTON      CLOUDY    43  41  93 N6        29.90R
THUNDER BAY    CLOUDY    48  46  93 NE3       29.89R
SIOUX LOOKOUT  LGT RAIN  46  41  81 NE3       29.98R
TORONTO        CLOUDY    59  50  72 S5        29.88F
BIG TROUT LK   SUNNY     39  28  65 NE7       30.13R
PICKLE LAKE    PTSUNNY   41  37  87 N7        30.02R
DRYDEN         CLOUDY    46  43  87 NE10G22   29.98R
KENORA         PTSUNNY   48  41  76 NE10      30.00R
$$
                *** MANITOBA***

CITY           SKY/WX    TMP DP  RH WIND       PRES   REMARKS
BRANDON        MOSUNNY   52  39  62 N7        30.16R
DAUPHIN        SUNNY     52  39  62 SW7       30.16S
ISLAND LAKE    MOSUNNY   48  36  61 W2        30.15S
PILOT MOUND      N/A     50  39  66 N15         N/A
THE PAS        MOSUNNY   55  45  67 S8        30.09F
THOMPSON       MOSUNNY   48  37  66 VRB2      30.10F
WINNIPEG       MOSUNNY   52  43  71 N16       30.09R
LYNN LAKE      SUNNY     54  36  50 S10       29.97F
CHURCHILL      PTSUNNY   32  32 100 S13       30.12F WCI  22
GILLAM         PTSUNNY   41  36  81 VRB2      30.15S
$$
                ***SASKATCHEWAN***

CITY           SKY/WX    TMP DP  RH WIND       PRES   REMARKS
ESTEVAN        MOSUNNY   48  39  71 NW3       30.17S
KINDERSLEY     PTSUNNY   54  36  50 S12       30.05F
LLOYDMINSTER   CLOUDY    57  39  51 S14       29.94F
PRINCE ALBERT  PTSUNNY   54  41  62 SW5       30.06F
REGINA         MOSUNNY   46  32  57 SE7       30.14F
YORKTON        SUNNY     52  36  54 SW5       30.15S
N. BATTLEFORD  CLOUDY    59  36  41 S8        30.04F
LA RONGE       CLOUDY    57  36  44 S7        29.98F
SASKATOON      PTSUNNY   52  37  58 S6        30.09F
SWIFT CURRENT  SUNNY     54  32  43 SW15      30.11F
$$
NOTE: THESE ARE AUTOMATED STATIONS WITH LIMITED QUALITY CONTROL
      "FAIR" INDICATES FEW OR NO CLOUDS BELOW 12,000 FEET WITH NO
      SIGNIFICANT WEATHER AND/OR OBSTRUCTIONS TO VISIBILITY.
      SKY/WX - SKY CONDITION AND SIGNIFICANT WEATHER.
      TMP - AIR TEMPERATURE.    DP   - DEWPOINT TEMPERATURE.
      RH  - RELATIVE HUMIDITY.  PRES - PRESSURE.
      HX  - HEAT INDEX.         WCI  - WIND CHILL INDEX.
$




USA.gov is the U.S. government's official web portal to all federal, state and local government web resources and services.